DHK027 KMIA-EGNX

Flight info

Callsign DHK027
Flight time N/A
Altitude 35000
Route FOLZZ3 SUMRS/M083F350 M204 FLUPS DCT NOSID/M083F370 DCT SOORY DCT 42N050W 44N040W 46N030W 48N020W 48N015W DCT OMOKO DCT GUNSO/N0479F390 DCT TISMO DCT BOFUM Q37 MALUD
Aircraft B77L/H-SDE1E2E3FGHIJ2J3J4J5M1RWXY/LB1D1

Departure

Time N/A
Airport Miami International Airport (KMIA)

Arrival

Time 2026-05-05 19:17
Airport East Midlands Airport (EGNX)
Time Latitude Longitude Altitude Speed Heading
2026-05-05 16:36 48.52281 -13.17540 39182 ft 488 kts 65°
2026-05-05 16:36 48.53584 -13.12811 39182 ft 488 kts 65°
2026-05-05 16:36 48.56185 -13.03345 39193 ft 488 kts 65°
2026-05-05 16:37 48.58745 -12.93989 39187 ft 489 kts 65°
2026-05-05 16:37 48.61334 -12.84490 39176 ft 489 kts 65°
2026-05-05 16:38 48.63901 -12.75032 39167 ft 489 kts 66°
2026-05-05 16:38 48.66473 -12.65516 39171 ft 489 kts 66°
2026-05-05 16:39 48.69039 -12.55986 39170 ft 489 kts 66°
2026-05-05 16:39 48.71598 -12.46441 39166 ft 489 kts 66°
2026-05-05 16:40 48.74150 -12.36884 39166 ft 489 kts 66°
2026-05-05 16:40 48.76691 -12.27330 39166 ft 489 kts 66°
2026-05-05 16:41 48.79227 -12.17754 39161 ft 489 kts 66°
2026-05-05 16:41 48.81742 -12.08227 39154 ft 488 kts 66°
2026-05-05 16:42 48.85170 -11.99626 39162 ft 483 kts 47°
2026-05-05 16:42 48.90157 -11.92920 39153 ft 478 kts 33°
2026-05-05 16:43 48.95657 -11.87191 39154 ft 479 kts 33°
2026-05-05 16:43 49.01114 -11.81371 39150 ft 480 kts 33°
2026-05-05 16:44 49.06545 -11.75443 39150 ft 480 kts 34°
2026-05-05 16:44 49.11945 -11.69401 39144 ft 481 kts 34°
2026-05-05 16:45 49.17297 -11.63349 39148 ft 481 kts 34°
2026-05-05 16:45 49.22681 -11.57255 39147 ft 482 kts 35°
2026-05-05 16:46 49.28077 -11.51144 39143 ft 482 kts 34°
2026-05-05 16:46 49.33464 -11.45031 39138 ft 482 kts 35°
2026-05-05 16:47 49.38852 -11.38900 39139 ft 482 kts 34°
2026-05-05 16:47 49.44235 -11.32758 39141 ft 482 kts 35°
2026-05-05 16:48 49.49615 -11.26601 39132 ft 482 kts 35°
2026-05-05 16:48 49.54996 -11.20426 39140 ft 482 kts 35°
2026-05-05 16:49 49.60369 -11.14242 39129 ft 482 kts 35°
2026-05-05 16:49 49.65710 -11.08077 39132 ft 482 kts 35°
2026-05-05 16:50 49.71076 -11.01868 39129 ft 482 kts 35°
2026-05-05 16:50 49.76365 -10.95730 39131 ft 482 kts 35°
2026-05-05 16:51 49.81733 -10.89481 39126 ft 483 kts 35°
2026-05-05 16:51 49.87100 -10.83217 39127 ft 483 kts 35°
2026-05-05 16:52 49.92440 -10.76966 39128 ft 483 kts 35°
2026-05-05 16:52 49.97803 -10.70671 39123 ft 483 kts 35°
2026-05-05 16:53 50.03159 -10.64365 39119 ft 484 kts 36°
2026-05-05 16:53 50.08522 -10.58033 39117 ft 484 kts 36°
2026-05-05 16:54 50.13887 -10.51682 39118 ft 484 kts 36°
2026-05-05 16:54 50.19246 -10.45318 39118 ft 484 kts 36°
2026-05-05 16:55 50.24602 -10.38939 39115 ft 485 kts 36°
2026-05-05 16:55 50.29964 -10.32534 39112 ft 485 kts 36°
2026-05-05 16:56 50.35325 -10.26113 39112 ft 485 kts 36°
2026-05-05 16:56 50.40641 -10.19726 39115 ft 485 kts 36°
2026-05-05 16:57 50.45998 -10.13273 39109 ft 485 kts 36°
2026-05-05 16:57 50.51351 -10.06803 39106 ft 485 kts 36°
2026-05-05 16:58 50.56706 -10.00314 39104 ft 485 kts 36°
2026-05-05 16:58 50.61982 -9.93901 39103 ft 485 kts 36°
2026-05-05 16:59 50.67322 -9.87391 39103 ft 485 kts 36°
2026-05-05 16:59 50.72656 -9.80869 39104 ft 485 kts 36°
2026-05-05 17:00 50.77964 -9.74359 39101 ft 485 kts 36°
2026-05-05 17:00 50.83299 -9.67798 39101 ft 485 kts 36°
2026-05-05 17:01 50.88626 -9.61227 39098 ft 485 kts 36°
2026-05-05 17:01 50.93962 -9.54625 39098 ft 485 kts 36°
2026-05-05 17:02 50.99284 -9.48021 39096 ft 486 kts 37°
2026-05-05 17:02 51.04559 -9.41455 39093 ft 486 kts 37°
2026-05-05 17:03 51.09874 -9.34819 39093 ft 486 kts 37°
2026-05-05 17:03 51.15200 -9.28150 39087 ft 486 kts 37°
2026-05-05 17:04 51.20510 -9.21481 39087 ft 486 kts 37°
2026-05-05 17:04 51.25819 -9.14793 39079 ft 486 kts 37°
2026-05-05 17:05 51.31125 -9.08088 39087 ft 487 kts 37°
2026-05-05 17:05 51.36440 -9.01351 39074 ft 487 kts 37°
2026-05-05 17:06 51.41678 -8.94693 39087 ft 487 kts 37°
2026-05-05 17:06 51.46949 -8.87972 39072 ft 487 kts 37°
2026-05-05 17:07 51.52250 -8.81192 39076 ft 487 kts 37°
2026-05-05 17:07 51.57552 -8.74389 39077 ft 487 kts 37°
2026-05-05 17:08 51.62845 -8.67578 39075 ft 487 kts 37°
2026-05-05 17:08 51.68139 -8.60744 39071 ft 488 kts 37°
2026-05-05 17:09 51.73432 -8.53889 39074 ft 487 kts 37°
2026-05-05 17:09 51.78711 -8.47033 39078 ft 488 kts 37°
2026-05-05 17:10 51.83996 -8.40146 39068 ft 488 kts 37°
2026-05-05 17:10 51.89243 -8.33287 39064 ft 488 kts 37°
2026-05-05 17:11 51.94521 -8.26368 39068 ft 488 kts 38°
2026-05-05 17:11 51.99789 -8.19439 39061 ft 488 kts 38°
2026-05-05 17:12 52.05056 -8.12490 39070 ft 488 kts 38°
2026-05-05 17:12 52.10331 -8.05510 39060 ft 489 kts 38°
2026-05-05 17:13 52.15365 -7.98332 39064 ft 490 kts 44°
2026-05-05 17:13 52.20070 -7.90308 39061 ft 490 kts 45°
2026-05-05 17:14 52.24730 -7.82173 39068 ft 490 kts 45°
2026-05-05 17:14 52.29405 -7.74058 39066 ft 491 kts 45°
2026-05-05 17:15 52.34094 -7.65953 39060 ft 491 kts 45°
2026-05-05 17:15 52.38790 -7.57831 39059 ft 491 kts 45°
2026-05-05 17:16 52.43478 -7.49693 39052 ft 491 kts 45°
2026-05-05 17:16 52.48164 -7.41527 39052 ft 491 kts 45°
2026-05-05 17:17 52.52811 -7.33402 39055 ft 491 kts 46°
2026-05-05 17:17 52.57519 -7.25142 39056 ft 492 kts 46°
2026-05-05 17:18 52.62160 -7.16973 39053 ft 492 kts 46°
2026-05-05 17:18 52.66831 -7.08723 39055 ft 492 kts 46°
2026-05-05 17:19 52.71494 -7.00459 39058 ft 492 kts 46°
2026-05-05 17:19 52.76076 -6.92311 39057 ft 493 kts 46°
2026-05-05 17:20 52.80734 -6.84001 39058 ft 493 kts 46°
2026-05-05 17:20 52.85385 -6.75674 39060 ft 493 kts 46°
2026-05-05 17:21 52.90007 -6.67373 39061 ft 493 kts 46°
2026-05-05 17:22 52.96974 -6.54805 39067 ft 494 kts 46°
2026-05-05 17:22 53.01611 -6.46405 39067 ft 494 kts 46°
2026-05-05 17:23 53.06254 -6.37964 39073 ft 494 kts 46°
2026-05-05 17:23 53.10880 -6.29526 39068 ft 494 kts 46°
2026-05-05 17:24 53.14753 -6.22439 39070 ft 494 kts 46°
2026-05-05 17:24 53.19341 -6.14015 39076 ft 494 kts 46°
2026-05-05 17:25 53.23957 -6.05513 39060 ft 494 kts 46°
2026-05-05 17:25 53.28496 -5.97123 39077 ft 494 kts 47°
2026-05-05 17:26 53.33098 -5.88586 39077 ft 494 kts 47°
2026-05-05 17:26 53.37691 -5.80038 39074 ft 494 kts 47°
2026-05-05 17:27 53.42280 -5.71466 39052 ft 494 kts 47°
2026-05-05 17:27 53.46863 -5.62877 39051 ft 494 kts 47°
2026-05-05 17:28 53.51302 -5.54077 39044 ft 494 kts 57°
2026-05-05 17:28 53.52783 -5.48870 39068 ft 494 kts 71°
2026-05-05 17:28 53.53563 -5.43327 39053 ft 495 kts 83°
2026-05-05 17:29 53.53388 -5.31800 39062 ft 495 kts 94°
2026-05-05 17:29 53.52988 -5.20228 39056 ft 496 kts 92°
2026-05-05 17:30 53.52690 -5.08609 39057 ft 498 kts 93°
2026-05-05 17:30 53.52304 -4.97194 39058 ft 499 kts 94°
2026-05-05 17:31 53.51906 -4.85526 39050 ft 500 kts 94°
2026-05-05 17:31 53.51511 -4.73859 39042 ft 500 kts 94°
2026-05-05 17:32 53.51106 -4.62182 39049 ft 500 kts 94°
2026-05-05 17:32 53.50691 -4.50525 39033 ft 499 kts 94°
2026-05-05 17:33 53.50305 -4.39973 39037 ft 498 kts 94°
2026-05-05 18:56 53.50292 -4.39643 37870 ft 498 kts 94°
2026-05-05 18:56 53.50076 -4.33835 39075 ft 498 kts 94°
2026-05-05 18:56 53.49856 -4.28032 39041 ft 498 kts 94°
2026-05-05 18:57 53.49489 -4.18456 38867 ft 492 kts 94°
2026-05-05 18:57 53.49193 -4.10863 38463 ft 492 kts 94°
2026-05-05 18:57 53.48966 -4.05136 38109 ft 492 kts 94°
2026-05-05 18:58 53.48664 -3.99563 37733 ft 492 kts 98°
2026-05-05 18:58 53.48292 -3.95788 37303 ft 481 kts 102°
2026-05-05 18:58 53.47513 -3.90335 35923 ft 480 kts 108°
2026-05-05 18:58 53.46424 -3.85002 34319 ft 484 kts 111°
2026-05-05 18:59 53.45284 -3.79760 32529 ft 485 kts 111°
2026-05-05 18:59 53.44132 -3.74417 30660 ft 488 kts 111°
2026-05-05 18:59 53.43003 -3.69038 29015 ft 487 kts 111°
2026-05-05 18:59 53.41893 -3.63708 27741 ft 482 kts 112°
2026-05-05 19:00 53.40432 -3.58727 27163 ft 470 kts 126°
2026-05-05 19:00 53.38394 -3.54561 26287 ft 456 kts 135°
2026-05-05 19:00 53.36243 -3.50722 25997 ft 450 kts 135°
2026-05-05 19:00 53.34082 -3.46843 25629 ft 465 kts 135°
2026-05-05 19:01 53.31888 -3.42818 25212 ft 468 kts 134°
2026-05-05 19:01 53.29731 -3.38773 24802 ft 462 kts 133°
2026-05-05 19:01 53.27618 -3.34761 24398 ft 456 kts 133°
2026-05-05 19:01 53.25535 -3.30794 24008 ft 452 kts 133°
2026-05-05 19:02 53.23456 -3.26844 23617 ft 451 kts 133°
2026-05-05 19:02 53.21383 -3.22925 23163 ft 449 kts 133°
2026-05-05 19:02 53.19329 -3.19025 22735 ft 446 kts 131°
2026-05-05 19:02 53.17502 -3.14858 22362 ft 444 kts 124°
2026-05-05 19:03 53.15889 -3.10477 21974 ft 442 kts 122°
2026-05-05 19:03 53.14353 -3.06120 21590 ft 440 kts 122°
2026-05-05 19:03 53.12784 -3.01762 21203 ft 438 kts 122°
2026-05-05 19:03 53.11228 -2.97588 20832 ft 435 kts 123°
2026-05-05 19:04 53.09614 -2.93354 20459 ft 433 kts 123°
2026-05-05 19:04 53.08061 -2.89089 20061 ft 429 kts 117°
2026-05-05 19:04 53.07178 -2.84392 19746 ft 424 kts 98°
2026-05-05 19:04 53.06870 -2.79515 19465 ft 426 kts 96°
2026-05-05 19:05 53.06539 -2.74596 19157 ft 430 kts 97°
2026-05-05 19:05 53.06175 -2.69680 18852 ft 428 kts 97°
2026-05-05 19:05 53.05791 -2.64786 18548 ft 426 kts 97°
2026-05-05 19:05 53.05397 -2.59909 18231 ft 424 kts 98°
2026-05-05 19:06 53.04999 -2.55058 17896 ft 422 kts 98°
2026-05-05 19:06 53.04603 -2.50243 17574 ft 419 kts 98°
2026-05-05 19:06 53.04209 -2.45458 17265 ft 416 kts 98°
2026-05-05 19:06 53.03817 -2.40707 16970 ft 414 kts 98°
2026-05-05 19:07 53.03425 -2.35990 16678 ft 412 kts 98°
2026-05-05 19:07 53.03036 -2.31289 16385 ft 410 kts 97°
2026-05-05 19:07 53.02894 -2.26646 16090 ft 406 kts 88°
2026-05-05 19:07 53.03081 -2.21977 15785 ft 405 kts 84°
2026-05-05 19:08 53.03361 -2.17313 15290 ft 405 kts 83°
2026-05-05 19:08 53.03628 -2.12677 14741 ft 400 kts 84°
2026-05-05 19:08 53.03804 -2.08117 14184 ft 391 kts 89°
2026-05-05 19:08 53.03520 -2.03765 13618 ft 368 kts 103°
2026-05-05 19:09 53.02598 -1.99959 12991 ft 349 kts 122°
2026-05-05 19:09 53.01145 -1.97041 12439 ft 332 kts 136°
2026-05-05 19:09 52.99488 -1.94484 11914 ft 321 kts 139°
2026-05-05 19:09 52.97847 -1.92100 11424 ft 307 kts 140°
2026-05-05 19:10 52.96257 -1.89811 10664 ft 299 kts 140°
2026-05-05 19:10 52.94705 -1.87587 9793 ft 295 kts 140°
2026-05-05 19:10 52.93146 -1.85369 8985 ft 294 kts 140°
2026-05-05 19:10 52.91605 -1.83195 8248 ft 291 kts 140°
2026-05-05 19:11 52.90081 -1.81074 7528 ft 281 kts 140°
2026-05-05 19:11 52.88582 -1.79035 6712 ft 275 kts 140°
2026-05-05 19:11 52.87113 -1.77086 5950 ft 267 kts 140°
2026-05-05 19:11 52.85656 -1.75194 5019 ft 266 kts 140°
2026-05-05 19:12 52.84301 -1.73131 4035 ft 263 kts 126°
2026-05-05 19:12 52.83253 -1.70698 3306 ft 256 kts 121°
2026-05-05 19:12 52.82316 -1.68224 2962 ft 246 kts 112°
2026-05-05 19:12 52.82031 -1.65551 2686 ft 232 kts 80°
2026-05-05 19:13 52.82317 -1.63007 2334 ft 224 kts 78°
2026-05-05 19:13 52.82533 -1.60474 2067 ft 219 kts 82°
2026-05-05 19:13 52.82633 -1.58040 2005 ft 206 kts 85°
2026-05-05 19:13 52.82677 -1.55758 1958 ft 190 kts 85°
2026-05-05 19:14 52.82713 -1.53704 1992 ft 168 kts 85°
2026-05-05 19:14 52.82745 -1.51867 1981 ft 151 kts 84°
2026-05-05 19:14 52.82777 -1.50219 1992 ft 138 kts 83°
2026-05-05 19:14 52.82804 -1.48692 1934 ft 128 kts 83°
2026-05-05 19:15 52.82827 -1.47241 1911 ft 131 kts 83°
2026-05-05 19:15 52.82856 -1.45676 1748 ft 140 kts 82°
2026-05-05 19:15 52.82898 -1.44021 1532 ft 148 kts 81°
2026-05-05 19:15 52.82943 -1.42312 1313 ft 149 kts 84°
2026-05-05 19:16 52.82959 -1.40613 1032 ft 145 kts 84°
2026-05-05 19:16 52.82978 -1.38974 824 ft 142 kts 83°
2026-05-05 19:16 52.83016 -1.37351 672 ft 141 kts 84°
2026-05-05 19:16 52.83050 -1.35732 470 ft 139 kts 83°
2026-05-05 19:17 52.83075 -1.34152 311 ft 132 kts 83°
2026-05-05 19:17 52.83100 -1.32817 305 ft 95 kts 89°
2026-05-05 19:17 52.83116 -1.31971 311 ft 54 kts 88°
2026-05-05 19:17 52.83128 -1.31425 311 ft 24 kts 89°
2026-05-05 19:18 52.83065 -1.31314 311 ft 13 kts 178°
2026-05-05 19:18 52.82971 -1.31348 309 ft 12 kts 228°
2026-05-05 19:18 52.82954 -1.31487 307 ft 13 kts 271°
2026-05-05 19:18 52.82953 -1.31644 306 ft 14 kts 267°
2026-05-05 19:19 52.82949 -1.31811 308 ft 15 kts 269°
2026-05-05 19:19 52.82947 -1.31981 308 ft 16 kts 269°
2026-05-05 19:19 52.82942 -1.32165 305 ft 16 kts 267°
2026-05-05 19:19 52.82938 -1.32353 305 ft 16 kts 269°
2026-05-05 19:20 52.82936 -1.32546 305 ft 17 kts 268°
2026-05-05 19:20 52.82932 -1.32747 309 ft 18 kts 268°
2026-05-05 19:20 52.82928 -1.32948 306 ft 18 kts 268°
2026-05-05 19:20 52.82924 -1.33159 306 ft 19 kts 268°
2026-05-05 19:21 52.82920 -1.33374 312 ft 19 kts 268°
2026-05-05 19:21 52.82916 -1.33596 311 ft 20 kts 268°
2026-05-05 19:21 52.82913 -1.33826 309 ft 20 kts 269°
2026-05-05 19:21 52.82908 -1.34063 306 ft 22 kts 267°
2026-05-05 19:22 52.82907 -1.34319 309 ft 21 kts 271°
2026-05-05 19:22 52.82834 -1.34482 307 ft 15 kts 238°
2026-05-05 19:22 52.82829 -1.34616 305 ft 12 kts 270°
2026-05-05 19:22 52.82828 -1.34761 305 ft 13 kts 268°
2026-05-05 19:23 52.82826 -1.34918 307 ft 14 kts 268°
2026-05-05 19:23 52.82823 -1.35078 307 ft 7 kts 268°
2026-05-05 19:23 52.82799 -1.35111 306 ft 5 kts 194°
2026-05-05 19:23 52.82761 -1.35114 305 ft 0 kts 180°
2026-05-05 19:24 52.82755 -1.35114 305 ft 2 kts 179°
2026-05-05 19:24 52.82741 -1.35113 305 ft 0 kts 179°